| time (UTC) | temp F | wind direction | speed MPH | gust MPH | rain 1hr in | rain 24hr in | rain mn in | humidity % | barometer mb |
| 20260904124532 | 74 | 0 | 0.0 | 4.0 | 0.00 | 0.02 | 0.00 | 83 | 1015.1 |
| 20260904123037 | 72 | 267 | 0.0 | 3.0 | 0.00 | 0.02 | 0.00 | 86 | 1015.1 |
| 20260904121533 | 70 | 0 | 0.0 | 4.0 | 0.00 | 0.02 | 0.00 | 90 | 1015.2 |
| 20260904120034 | 68 | 0 | 0.0 | 5.0 | 0.00 | 0.02 | 0.00 | 91 | 1015.3 |
| 20260904114534 | 67 | 299 | 0.0 | 3.0 | 0.00 | 0.03 | 0.00 | 92 | 1015.1 |
| 20260904113041 | 67 | 0 | 0.0 | 2.0 | 0.00 | 0.03 | 0.00 | 92 | 1015.0 |
| 20260904111538 | 66 | 0 | 0.0 | 0.0 | 0.00 | 0.03 | 0.00 | 91 | 1014.8 |
| 20260904110037 | 66 | 0 | 0.0 | 0.0 | 0.00 | 0.03 | 0.00 | 90 | 1014.7 |
| 20260904104535 | 67 | 0 | 0.0 | 0.0 | 0.00 | 0.06 | 0.00 | 90 | 1014.5 |
| 20260904103039 | 67 | 0 | 0.0 | 0.0 | 0.00 | 0.06 | 0.00 | 90 | 1014.2 |
| 20260904101547 | 67 | 0 | 0.0 | 0.0 | 0.00 | 0.06 | 0.00 | 90 | 1014.1 |
| 20260904100036 | 67 | 0 | 0.0 | 0.0 | 0.00 | 0.06 | 0.00 | 90 | 1014.0 |
| 20260904094542 | 67 | 0 | 0.0 | 0.0 | 0.00 | 0.14 | 0.00 | 90 | 1014.2 |
| 20260904093037 | 68 | 0 | 0.0 | 0.0 | 0.00 | 0.14 | 0.00 | 90 | 1013.8 |
| 20260904091535 | 68 | 0 | 0.0 | 0.0 | 0.00 | 0.14 | 0.00 | 90 | 1013.9 |
| 20260904090034 | 68 | 0 | 0.0 | 0.0 | 0.00 | 0.14 | 0.00 | 90 | 1014.3 |
| 20260904084534 | 68 | 0 | 0.0 | 1.0 | 0.00 | 0.17 | 0.00 | 90 | 1014.1 |
| 20260904083041 | 68 | 46 | 0.0 | 1.0 | 0.00 | 0.17 | 0.00 | 90 | 1014.2 |
| 20260904081532 | 68 | 0 | 0.0 | 2.0 | 0.00 | 0.17 | 0.00 | 90 | 1014.4 |
| 20260904080036 | 68 | 0 | 0.0 | 2.0 | 0.00 | 0.17 | 0.00 | 90 | 1014.2 |
| 20260904074541 | 68 | 0 | 0.0 | 2.0 | 0.00 | 0.17 | 0.00 | 90 | 1014.2 |
| 20260904073034 | 68 | 0 | 0.0 | 1.0 | 0.00 | 0.17 | 0.00 | 90 | 1014.2 |
| 20260904071534 | 68 | 0 | 0.0 | 0.0 | 0.00 | 0.17 | 0.00 | 89 | 1014.1 |
| 20260904070033 | 68 | 0 | 0.0 | 0.0 | 0.00 | 0.17 | 0.00 | 89 | 1013.9 |
| 20260904064535 | 68 | 0 | 0.0 | 2.0 | 0.00 | 0.17 | 0.00 | 89 | 1013.4 |
| 20260904063033 | 68 | 189 | 1.0 | 3.0 | 0.00 | 0.17 | 0.00 | 89 | 1013.1 |
| 20260904061532 | 69 | 0 | 0.0 | 0.0 | 0.00 | 0.17 | 0.00 | 88 | 1012.9 |
| 20260904060055 | 69 | 0 | 0.0 | 0.0 | 0.00 | 0.17 | 0.00 | 88 | 1012.6 |
| 20260904054552 | 70 | 0 | 0.0 | 0.0 | 0.00 | 0.17 | 0.00 | 88 | 1012.8 |
| 20260904053042 | 71 | 0 | 0.0 | 1.0 | 0.00 | 0.17 | 0.00 | 87 | 1013.0 |
| 20260904051535 | 71 | 0 | 0.0 | 3.0 | 0.00 | 0.17 | 0.00 | 86 | 1013.2 |
| 20260904050038 | 71 | 223 | 1.0 | 6.0 | 0.00 | 0.17 | 0.00 | 86 | 1013.4 |
| 20260904044540 | 72 | 198 | 0.0 | 3.0 | 0.01 | 0.17 | 0.00 | 88 | 1013.4 |
| 20260904043041 | 72 | 203 | 0.0 | 3.0 | 0.01 | 0.17 | 0.00 | 86 | 1013.6 |
| 20260904041534 | 73 | 0 | 1.0 | 4.0 | 0.01 | 0.17 | 0.00 | 84 | 1013.7 |
| 20260904040037 | 74 | 236 | 1.0 | 7.0 | 0.01 | 0.17 | 0.00 | 84 | 1014.0 |
| 20260904034534 | 75 | 0 | 1.0 | 4.0 | 0.01 | 0.16 | 0.16 | 88 | 1014.4 |
| 20260904033035 | 75 | 0 | 1.0 | 4.0 | 0.01 | 0.16 | 0.16 | 90 | 1014.7 |
| 20260904031536 | 75 | 238 | 0.0 | 3.0 | 0.01 | 0.16 | 0.16 | 89 | 1014.6 |
| 20260904030035 | 75 | 166 | 0.0 | 2.0 | 0.01 | 0.16 | 0.16 | 89 | 1015.0 |
| 20260904024536 | 75 | 0 | 0.0 | 2.0 | 0.00 | 0.15 | 0.15 | 89 | 1015.0 |
| 20260904023032 | 75 | 269 | 0.0 | 0.0 | 0.00 | 0.15 | 0.15 | 88 | 1014.6 |
| 20260904021536 | 75 | 0 | 0.0 | 0.0 | 0.00 | 0.15 | 0.15 | 88 | 1014.1 |
| 20260904020035 | 75 | 0 | 0.0 | 0.0 | 0.00 | 0.15 | 0.15 | 87 | 1014.2 |
| 20260904014607 | 75 | 0 | 0.0 | 1.0 | 0.00 | 0.15 | 0.15 | 87 | 1013.9 |
| 20260904013043 | 75 | 0 | 0.0 | 0.0 | 0.00 | 0.15 | 0.15 | 87 | 1013.7 |
| 20260904011535 | 75 | 0 | 0.0 | 0.0 | 0.00 | 0.15 | 0.15 | 87 | 1013.8 |
| 20260904010034 | 75 | 0 | 0.0 | 1.0 | 0.00 | 0.15 | 0.15 | 86 | 1014.2 |
| 20260904004533 | 75 | 0 | 0.0 | 0.0 | 0.00 | 0.15 | 0.15 | 86 | 1014.1 |
| 20260904003036 | 76 | 0 | 0.0 | 1.0 | 0.00 | 0.15 | 0.15 | 86 | 1014.3 |
| 20260904001536 | 76 | 0 | 0.0 | 0.0 | 0.00 | 0.15 | 0.15 | 86 | 1014.4 |
| 20260904000034 | 77 | 0 | 0.0 | 0.0 | 0.00 | 0.15 | 0.15 | 85 | 1014.4 |
| 20260903234541 | 77 | 0 | 0.0 | 0.0 | 0.00 | 0.15 | 0.15 | 83 | 1014.0 |
| 20260903233037 | 78 | 0 | 0.0 | 0.0 | 0.00 | 0.15 | 0.15 | 82 | 1013.8 |
| 20260903231534 | 79 | 0 | 0.0 | 0.0 | 0.00 | 0.15 | 0.15 | 81 | 1014.0 |
| 20260903230035 | 80 | 0 | 0.0 | 0.0 | 0.00 | 0.15 | 0.15 | 80 | 1013.7 |
| 20260903224535 | 81 | 0 | 0.0 | 0.0 | 0.00 | 0.15 | 0.15 | 78 | 1013.8 |
| 20260903223036 | 82 | 0 | 0.0 | 3.0 | 0.00 | 0.15 | 0.15 | 76 | 1013.7 |
| 20260903221536 | 84 | 0 | 0.0 | 4.0 | 0.00 | 0.15 | 0.15 | 72 | 1013.7 |
| 20260903220032 | 85 | 0 | 0.0 | 3.0 | 0.00 | 0.15 | 0.15 | 67 | 1013.4 |
| 20260903214540 | 86 | 352 | 1.0 | 4.0 | 0.00 | 0.15 | 0.15 | 67 | 1013.5 |
| 20260903213042 | 85 | 0 | 1.0 | 8.0 | 0.00 | 0.15 | 0.15 | 67 | 1013.5 |
| 20260903211548 | 86 | 223 | 1.0 | 5.0 | 0.00 | 0.15 | 0.15 | 66 | 1013.3 |
| 20260903210039 | 85 | 280 | 1.0 | 6.0 | 0.00 | 0.15 | 0.15 | 67 | 1013.5 |
| 20260903204534 | 87 | 227 | 2.0 | 6.0 | 0.00 | 0.15 | 0.15 | 63 | 1013.6 |
| 20260903203036 | 87 | 237 | 1.0 | 5.0 | 0.00 | 0.15 | 0.15 | 65 | 1013.6 |
| 20260903201537 | 87 | 73 | 1.0 | 7.0 | 0.00 | 0.15 | 0.15 | 68 | 1013.6 |
| 20260903200037 | 87 | 138 | 3.0 | 7.0 | 0.00 | 0.15 | 0.15 | 66 | 1013.8 |
| 20260903194536 | 87 | 271 | 2.0 | 5.0 | 0.00 | 0.15 | 0.15 | 67 | 1014.0 |
| 20260903193039 | 86 | 31 | 2.0 | 6.0 | 0.00 | 0.15 | 0.15 | 64 | 1014.2 |
| 20260903191535 | 86 | 130 | 1.0 | 7.0 | 0.00 | 0.15 | 0.15 | 72 | 1014.5 |
| 20260903190037 | 85 | 246 | 1.0 | 8.0 | 0.00 | 0.15 | 0.15 | 71 | 1014.6 |
| 20260903184536 | 85 | 223 | 2.0 | 4.0 | 0.00 | 0.15 | 0.15 | 67 | 1014.8 |
| 20260903183033 | 85 | 147 | 3.0 | 9.0 | 0.00 | 0.15 | 0.15 | 68 | 1015.1 |
| 20260903181538 | 84 | 165 | 0.0 | 5.0 | 0.00 | 0.15 | 0.15 | 73 | 1015.3 |
| 20260903180039 | 84 | 171 | 2.0 | 5.0 | 0.00 | 0.15 | 0.15 | 72 | 1015.3 |
| 20260903174538 | 83 | 260 | 2.0 | 7.0 | 0.00 | 0.28 | 0.15 | 73 | 1015.4 |
| 20260903173039 | 82 | 207 | 2.0 | 8.0 | 0.00 | 0.28 | 0.15 | 76 | 1015.7 |
| 20260903171538 | 81 | 179 | 2.0 | 9.0 | 0.00 | 0.28 | 0.15 | 76 | 1015.8 |
| 20260903170036 | 80 | 166 | 2.0 | 9.0 | 0.00 | 0.28 | 0.15 | 78 | 1016.2 |
| 20260903164535 | 80 | 90 | 1.0 | 7.0 | 0.00 | 0.83 | 0.15 | 79 | 1016.1 |
| 20260903163040 | 79 | 272 | 1.0 | 5.0 | 0.00 | 0.83 | 0.15 | 83 | 1016.5 |
| 20260903161533 | 77 | 232 | 1.0 | 5.0 | 0.00 | 0.83 | 0.15 | 85 | 1016.7 |
| 20260903160040 | 75 | 113 | 2.0 | 7.0 | 0.00 | 0.83 | 0.15 | 86 | 1016.8 |
| 20260903154534 | 75 | 352 | 2.0 | 7.0 | 0.00 | 0.94 | 0.15 | 86 | 1017.1 |
| 20260903153035 | 74 | 282 | 1.0 | 9.0 | 0.00 | 0.94 | 0.15 | 88 | 1016.9 |
| 20260903151535 | 74 | 300 | 2.0 | 6.0 | 0.00 | 0.94 | 0.15 | 87 | 1017.1 |
| 20260903150037 | 75 | 0 | 0.0 | 6.0 | 0.00 | 0.94 | 0.15 | 88 | 1017.6 |
| 20260903144537 | 75 | 271 | 0.0 | 4.0 | 0.00 | 0.94 | 0.15 | 88 | 1018.0 |
| 20260903143037 | 74 | 234 | 1.0 | 5.0 | 0.00 | 0.94 | 0.15 | 88 | 1017.9 |
| 20260903141535 | 74 | 55 | 1.0 | 5.0 | 0.00 | 0.94 | 0.15 | 88 | 1018.2 |
| 20260903140042 | 74 | 62 | 1.0 | 5.0 | 0.00 | 0.94 | 0.15 | 88 | 1017.7 |
| 20260903134534 | 74 | 170 | 1.0 | 5.0 | 0.00 | 0.94 | 0.15 | 88 | 1017.1 |
| 20260903133042 | 73 | 100 | 0.0 | 4.0 | 0.00 | 0.94 | 0.15 | 89 | 1016.5 |
| 20260903131535 | 72 | 134 | 0.0 | 4.0 | 0.00 | 0.94 | 0.15 | 91 | 1016.8 |
| 20260903130041 | 71 | 297 | 1.0 | 4.0 | 0.00 | 0.94 | 0.15 | 91 | 1017.2 |